Regional Weather Roundup
Issued by NWS

Home | Current Version | Previous Version | Text Only | Print | Product List | Glossary Off
Versions: 1 2 3 4 5 6 7 8 9 10 11 12 13 14 15 16 17 18 19 20 21 22 23 24 25 26 27

000
ASUS45 KCYS 162010
RWRWY

WYOMING REGIONAL WEATHER ROUNDUP
NATIONAL WEATHER SERVICE CHEYENNE WY
200 PM MDT MON OCT 16 2017

NOTE:  "FAIR" INDICATES FEW OR NO CLOUDS BELOW 12,000 FEET
WITH NO SIGNIFICANT WEATHER AND/OR OBSTRUCTIONS TO VISIBILITY.

WYZ001-162100-
YELLOWSTONE NATIONAL PARK

CITY           SKY/WX    TMP DP  RH WIND       PRES   REMARKS
LK YELLOWSTONE   N/A     50  10  20 VRB3      30.42F
W YELLOWSTONE  NOT AVBL

$$
WYZ002>013-054>058-071-098>099-162100-
NORTHERN WYOMING

CITY           SKY/WX    TMP DP  RH WIND       PRES   REMARKS
JACKSON        FAIR      49  26  41 NE5       30.41F
CODY           FAIR      69  14  12 W14G20    30.20F
GREYBULL       FAIR      64  28  25 S7        30.18F
WORLAND        FAIR      62  33  33 CALM      30.20F
SHERIDAN       FAIR      75  23  14 NW10      30.11F
BUFFALO        FAIR      70  17  13 S6        30.18F
GILLETTE       FAIR      70  21  15 NW10G21   30.14F
HULETT         FAIR      68  25  19 NW10G18   30.14F
NEWCASTLE      FAIR      64  25  22 NW9       30.16F

$$
WYZ014>020-022>026-101>103-162100-
CENTRAL WYOMING

CITY           SKY/WX    TMP DP  RH WIND       PRES   REMARKS
BIG PINEY      FAIR      57  12  17 CALM      30.38F
PINEDALE       FAIR      59  10  14 W3        30.39F
DUBOIS         FAIR      59   9  13 NW22G30   30.32F
LANDER         FAIR      64  15  15 CALM      30.24F
RIVERTON       FAIR      53  30  41 NE5       30.25F
CASPER         FAIR      62  13  14 SW18      30.23F
DOUGLAS        FAIR      67  14  13 NW18G26   30.20S

$$
WYZ021-027>030-104>119-162100-
SOUTHERN WYOMING

CITY           SKY/WX    TMP DP  RH WIND       PRES   REMARKS
EVANSTON       FAIR      64   4   9 SW15G24   30.41F
KEMMERER       FAIR      59   5  11 W18G24    30.41F
FORT BRIDGER   FAIR      67   4   8 W15       30.42F
ROCK SPRINGS   FAIR      61  -1   8 W17       30.38F
DIXON          FAIR      65   5   9 SW8G16    30.41F
RAWLINS        FAIR      62   5  10 SW21G33   30.34F
SARATOGA       FAIR      64   5   9 W22G30    30.36F
LARAMIE        FAIR      66  -2   6 W17       30.32F
CHEYENNE       FAIR      73   7   7 W24G31    30.25F
TORRINGTON     FAIR      74  11   9 W9        30.13F
PINE BLUFFS    FAIR      73  10   9 W17G25    30.21F

$$




USA.gov is the U.S. government's official web portal to all federal, state and local government web resources and services.